Regional Weather Roundup
Issued by NWS

Home | Current Version | Previous Version | Graphics & Text | Print | Product List | Glossary On
Versions: 1 2 3 4 5 6 7 8 9 10 11 12 13 14 15 16 17 18 19 20 21 22 23 24 25 26 27 28 29 30 31 32 33 34 35 36 37 38 39 40 41 42 43 44 45 46 47 48 49 50
000
ASUS43 KLOT 031908
RWRIL

ILLINOIS REGIONAL WEATHER ROUNDUP
NATIONAL WEATHER SERVICE CHICAGO/ROMEOVILLE IL
200 PM CDT FRI JUL 03 2015

NOTE: "FAIR" INDICATES FEW OR NO CLOUDS BELOW 12,000 FEET WITH NO
SIGNIFICANT WEATHER AND/OR OBSTRUCTIONS TO VISIBILITY.

* THESE STATIONS ARE NOT UNDER NWS QUALITY CONTROL. THEY ALSO MAY NOT
  REPORT WEATHER SUCH AS PRECIPITATION OR FOG.

ILZ001-002-007-009-015-016-024-032000-
NORTHWEST ILLINOIS

CITY           SKY/WX    TMP DP  RH WIND       PRES   REMARKS
MOLINE         SUNNY     76  56  49 E5        29.96F
STERLING*      MOSUNNY   75  57  53 CALM      29.97F
SAVANNA*       MOSUNNY   76  57  52 W3        29.97F
$$

ILZ003-004-008-010-011-017-018-032000-
NORTH CENTRAL ILLINOIS

CITY           SKY/WX    TMP DP  RH WIND       PRES   REMARKS
ROCKFORD       PTSUNNY   78  57  48 CALM      29.98F
FREEPORT*      SUNNY     73  55  52 CALM      29.99F
ROCHELLE*      MOSUNNY   74  56  53 CALM      29.98F
DE KALB*       MOSUNNY   73  55  53 NE5       29.98F
PERU*          MOSUNNY   75  55  49 E8        29.97S
$$

ILZ005-006-012>014-019>023-032000-
NORTHEAST ILLINOIS

CITY           SKY/WX    TMP DP  RH WIND       PRES   REMARKS
CHICAGO-OHARE  PTSUNNY   74  53  48 VRB3      29.95F
CHICAGO-MIDWAY CLOUDY    76  54  46 E12       29.96F
AURORA         PTSUNNY   75  56  51 NE6       29.97F
LANSING*       MOSUNNY   74  51  43 N7        29.96S
JOLIET*        MOSUNNY   77  59  54 N8        29.95F
WAUKEGAN       MOSUNNY   71  55  56 E9        29.97F
DUPAGE AIRPORT MOSUNNY   76  54  46 N6        29.96F
KANKAKEE*      PTSUNNY   74  57  55 NE6       29.95F
WHEELING       MOSUNNY   74  53  48 MISG      29.97F
MORRIS*        MOSUNNY   76  56  50 NE5       29.95S
ROMEOVILLE*    MOSUNNY   76  54  47 E5        29.96F
NORTHERLY ISL    N/A     66  59  78 N8          N/A
$$

LMZ740>746-032000-
SOUTHERN LAKE MICHIGAN

STATION/POSITION SKY/WX   TEMP    WIND        PRES    VSBY  WAVE
                          AIR SEA DIR/SP/G                  HT/PER
                          (F)     (DEG/KT/KT) (MB)    (MI)  (FT/S)
HARRISON CRIB              61      20/  6/  7   N/A
BURNHAM HARBOR             66      40/  6/  9   N/A
CALUMET HARBOR             67      30/  6/  7   N/A
BURNS HARBOR               64      20/  9/ 11 1015.6F
MICHIGAN CITY              65     340/  8/  9   N/A
MICHIGAN CITY 6N           63 64  360/ 10/ 12   N/A           1/ 4
ST. JOSEPH                 63 63                N/A           1/ 2
$$

ILZ025>027-034>036-040-047-049-050-058-095>099-032000-
WEST-CENTRAL ILLINOIS

CITY           SKY/WX    TMP DP  RH WIND       PRES   REMARKS
QUINCY         MOSUNNY   77  58  51 NE8       29.96S
GALESBURG*     MOSUNNY   77  61  57 N7        29.96F
MACOMB*        MOSUNNY   76  63  64 NE6       29.98S
JACKSONVILLE*  MOSUNNY   79  67  66 NE9       29.93F HX  81
PITTSFIELD*    SUNNY     77  61  56 N6        29.96S
$$

ILZ028>032-037-038-041>044-048-051>054-059>061-032000-
CENTRAL ILLINOIS

CITY           SKY/WX    TMP DP  RH WIND       PRES   REMARKS
PONTIAC        MOSUNNY   78  62  57 NE6       29.95F
BLOOMINGTON    MOSUNNY   77  65  66 NE10      29.96F
DECATUR        CLOUDY    76  67  73 N10       29.92F
PEORIA         MOSUNNY   80  61  52 N6        29.94F HX  81
LACON*         PTSUNNY   76  60  56 N8        29.95S
LINCOLN*       PTSUNNY   79  65  62 NE9       29.93F HX  80
SPRINGFIELD    MOSUNNY   77  66  68 N6        29.94F
TAYLORVILLE    CLOUDY    72  66  83 N7        29.93S
$$

ILZ033-039-045-046-055>057-062-063-032000-
EAST-CENTRAL ILLINOIS

CITY           SKY/WX    TMP DP  RH WIND       PRES   REMARKS
CHAMPAIGN      CLOUDY    76  65  68 NE8       29.92F
DANVILLE*      CLOUDY    74  64  70 NE9       29.90F
RANTOUL*       CLOUDY    76  64  66 NE9       29.93F
MATTOON        CLOUDY    77  67  71 N9        29.90F
PARIS*         PTSUNNY   77  67  71 NE8       29.91S
$$

ILZ079-100>102-032000-
SOUTHWEST ILLINOIS

CITY           SKY/WX    TMP DP  RH WIND       PRES   REMARKS
ALTON          PTSUNNY   75  73  94 N8        29.92F
BELLEVILLE     MOSUNNY   79  69  72 VRB3      29.90S HX  81
CAHOKIA*       MOSUNNY   81  66  60 VRB3      29.91S HX  83
SPARTA*        PTSUNNY   78  65  64 NW6       29.92S HX  80
$$

ILZ064>066-069>071-074>076-080>082-084>086-088>090-092>094-032000-
SOUTH-CENTRAL ILLINOIS

CITY           SKY/WX    TMP DP  RH WIND       PRES   REMARKS
CARBONDALE     PTSUNNY   82  64  54 NW6       29.89S HX  83
CAIRO*         LGT RAIN  77  71  81 W3        29.89F
EFFINGHAM*     MOSUNNY   78  64  62 N6        29.91S
MARION         PTSUNNY   81  68  65 N6        29.90S HX  83
MT. VERNON     PTSUNNY   81  66  61 CALM      29.89F HX  83
CENTRALIA*     PTSUNNY   80  67  66 NW7       29.90S HX  82
SALEM*         MOSUNNY   81  67  63 N5        29.90S HX  84
METROPOLIS*    PTSUNNY   81  72  73 W6        29.89F HX  85
$$

ILZ067-068-072-073-078-083-087-091-032000-
SOUTHEAST ILLINOIS

CITY           SKY/WX    TMP DP  RH WIND       PRES   REMARKS
LAWRENCEVILLE  PTSUNNY   77  69  76 N10       29.88S
FLORA*         PTSUNNY   78  67  69 N5        29.89S HX  80
FAIRFIELD*     PTSUNNY   78  69  73 N5        29.87S HX  80
HARRISBURG*    MOSUNNY   81  68  63 SW7       29.90R HX  84
ROBINSON*      MOSUNNY   78  67  68 N7        29.89S HX  80
CARMI*         MOSUNNY   82  65  56 NW9       29.87S HX  84
$$

ABBREVIATIONS USED IN REMARKS
   TC - TEMPERATURE IN CELSIUS
  WCI - WIND CHILL INDEX
   HX - HEAT INDEX
  VSB - VISIBILITY
$$




USA.gov is the U.S. government's official web portal to all federal, state and local government web resources and services.